Location: Warszawa
(52.2322°N, 21.0083°E)
Time: 16:41:56
(UTC+02:00)

N. Korean satellite - Visible Passes

Search period start: 18 September 2020 00:00
Search period end: 28 September 2020 00:00
Orbit: 455 x 503 km, 97.2° (Epoch: 17 September)

Date Brightness Start Highest point End Pass type
(mag) Time Alt. Az. Time Alt. Az. Time Alt. Az.
18 Sep 9.0 05:40:23 10° NNE 05:43:41 29° E 05:46:56 10° SSE visible
19 Sep 9.8 05:15:02 10° NE 05:17:28 17° E 05:19:53 10° SE visible
22 Sep 9.4 05:29:56 10° NE 05:32:57 23° E 05:35:54 10° SSE visible
23 Sep 10.0 05:04:54 10° ENE 05:06:40 13° E 05:08:26 10° ESE visible
25 Sep 8.7 05:45:00 10° NNE 05:48:21 33° E 05:51:38 10° SSE visible
26 Sep 9.7 05:19:32 10° NE 05:22:08 18° E 05:24:42 10° SE visible
